Voltar ao catálogo

SL-8 R/B

AtivoLEO
NORAD 11546·ROCKET BODY·🇷🇺 Russia

Lançado Sep 25, 1979 de Plesetsk Cosmodrome

Loading…

Próximas Passagens (próximas 24 horas)

TLE

AtualizadoSource: Space-Track

Época: Sep 14, 2026, 13:55 UTC

1 11546U 79084J   26257.58040245  .00000066  00000-0  74438-3 0  9996
2 11546  74.0207 280.2596 0126811 285.3726 251.8237 12.22323429 95779

Acompanhe SL-8 R/B em tempo real com AllMySat

Download on the App Store